Skip Page Navigation
NASA JPL Caltech
NASA Logo - Jet Propulsion Laboratory + View the NASA Portal
+ Center for Near-Earth Object Studies
JPL Home Earth Solar System Stars & Galaxies Technology
JPL Solar System Dynamics
BODIES ORBITS EPHEMERIDES TOOLS PHYSICAL DATA DISCOVERY FAQ SITE MAP
IMPORTANT: The SSD Announcement email list is now available. Major changes are coming in the near future, including possible hostname and/or URL changes. To be notified of such changes, subscribe to this email list.

Please visit this page for more details.


JPL Small-Body Database Browser
Search: [ help ]  
413759 (2006 DZ119)
Classification: Main-belt Asteroid          SPK-ID: 2413759
Ephemeris | Orbit Diagram | Orbital Elements | Mission Design | Physical Parameters | Discovery Circumstances | Close-Approach Data ]

[ show orbit diagram ]
Orbital Elements at Epoch 2459000.5 (2020-May-31.0) TDB
Reference: JPL 12 (heliocentric ecliptic J2000)
 Element Value Uncertainty (1-sigma)   Units 
e .1229780078818582 9.5462e-08  
a 3.092099469282405 6.2714e-08 au
q 2.711839236377504 2.9214e-07 au
i 10.46469150651455 1.1224e-05 deg
node 9.049797693920823 4.3036e-05 deg
peri 124.6890361524974 5.8155e-05 deg
M 237.2818009663276 3.6971e-05 deg
tp 2459677.494411332203
(2022-Apr-07.99441133)
0.00021046 TDB
period 1985.997105553349
5.44
6.042e-05
1.654e-07
d
yr
n .1812691463614671 5.5148e-09 deg/d
Q 3.472359702187306 7.0426e-08 au
  Orbit Determination Parameters
   # obs. used (total)      153  
   data-arc span      4882 days (13.37 yr)  
   first obs. used      2006-02-20  
   last obs. used      2019-07-04  
   planetary ephem.      DE431  
   SB-pert. ephem.      SB431-N16  
   condition code      0  
   norm. resid. RMS      .57166  
   source      ORB  
   producer      Otto Matic  
   solution date      2019-Sep-24 07:26:27  

Additional Information
 Earth MOID = 1.74144 au 
 Jupiter MOID = 1.59169 au 
 T_jup = 3.187 
[ show covariance matrix ]

Ephemeris | Orbit Diagram | Orbital Elements | Mission Design | Physical Parameters | Discovery Circumstances | Close-Approach Data ]

Physical Parameter Table
Parameter Symbol Value Units Sigma Reference Notes
absolute magnitude H 15.9   n/a MPO495100  

413759 (2006 DZ119)          Discovered 2006-Feb-20 by CSS at Catalina
Reference: Last Updated: 2014-11-10

[ show close-approach data ]
Alternate Designations
 2006 DZ119 = 2009 RQ9 
Ephemeris | Orbit Diagram | Orbital Elements | Mission Design | Physical Parameters | Discovery Circumstances | Close-Approach Data ]
ABOUT SSD CREDITS/AWARDS PRIVACY/COPYRIGHT GLOSSARY LINKS
FirstGov 2020-May-27 10:44 UT
(server date/time)  
NASA Home Page
Site Manager:   Ryan S. Park
Webmaster  Alan B. Chamberlin